Location: Zagreb
(45.8000°N, 16.0000°E)
Time: 20:54:57
(UTC+01:00)

Oscar 11 - Pass Details

Date: 03 November 2020
Orbit: 613 x 625 km, 97.6° (Epoch: 01 December)

Event Time Altitude Azimuth Distance (km) Brightness Sun altitude
Rises 18:48:23 0° 218° (SW) 2,883 11.0 -22.9°
Reaches altitude 10° 18:52:04 10° 251° (WSW) 1,981 10.6 -23.5°
Maximum altitude 18:53:34 12° 272° (W) 1,877 10.6 -23.8°
Drops below altitude 10° 18:55:05 10° 293° (WNW) 1,985 10.6 -24.0°
Sets 18:58:48 0° 326° (NW) 2,895 11.0 -24.7°
